Tracking 29892 objects as of 21-Nov-2024
HD Live streaming from Space Station
objects crossing your sky now

STARLINK-32145

Track STARLINK-32145 now!
10-day predictions
STARLINK-32145 is classified as:


NORAD ID: 60154
Int'l Code: 2024-120V
Perigee: 453.5 km
Apogee: 455.1 km
Inclination: 53.2 °
Period: 93.5 minutes
Semi major axis: 6825 km
RCS: Unknown
Launch date: June 27, 2024
Source: United States (US)
Launch site: AIR FORCE EASTERN TEST RANGE (AFETR)
Your satellite tracking list
Your tracking list is empty




NASA's NSSDC Master Catalog

Two Line Element Set (TLE):
1 60154U 24120V   24325.13280900 -.00000497  00000-0 -24307-5 0  9997
2 60154  53.1582   6.0163 0001203  85.4091 274.7051 15.39638597 23693
Source of the keplerian elements: AFSPC